Temp
30 33 33 29 29 29 26 27 24 24 25 29 31 32 33 36 39 39 40 40 40 40 40 40 41 42 44 44 45 46 46 45 44 47 47 47 47 48 50 50 49 49 49 50
27 35 33 31 31 32 29 29 27 28 26 32 32 35 35 39 40 39 40 41 42 42 42 41 41 42 43 44 44 45 44 43 44 44 45 45 45 46 46 46 47 48 50 47
23 33 32 25 27 29 29 30 29 24 28 32 31 33 35 38 40 39 40 40 41 42 42 42 42 43 42 44 44 44 43 44 43 44 43 43 44 44 44 44 45 47 45 45
24 29 16 28 37 34 30 30 32 31 32 32 35 37 39 41 39 39 40 40 41 41 43 43 44 43 44 44 44 43 42 42 42 43 42 42 42 42 42 43 43 46 45 47
21 23 29 31 32 29 28 26 34 33 36 38 38 41 36 40 40 39 40 41 41 42 43 43 43 44 44 43 41 41 40 41 42 42 42 42 40 41 42 41 41 42 42 44
23 19 17 29 36 39 35 24 36 37 35 35 37 30 32 38 39 39 40 40 40 42 42 42 41 43 42 41 40 39 39 40 41 42 39 40 39 40 40 41 40 42 38 39
19 20 26 35 38 42 24 25 38 38 36 35 32 33 36 38 38 39 39 39 40 40 40 40 41 40 39 39 37 39 40 41 40 41 40 41 39 40 39 38 38 37 38 38
23 20 18 38 38 30 34 39 40 38 37 36 36 36 36 37 37 37 36 36 38 38 39 41 41 39 37 37 39 41 40 40 39 38 38 39 37 37 37 37 35 35 35 36
27 28 35 39 37 41 42 40 38 38 38 36 35 35 35 35 36 37 38 38 39 39 39 40 40 39 36 38 39 39 39 39 38 38 38 37 36 35 36 37 36 35 35 37
29 36 36 39 42 43 43 41 40 39 38 37 35 35 35 35 36 36 38 38 39 39 38 38 39 38 38 40 40 39 37 37 38 37 37 37 37 37 36 37 36 36 35 35
34 38 39 41 42 43 42 41 40 40 38 36 36 35 35 35 36 36 37 38 38 36 36 36 37 38 40 40 40 38 37 36 36 36 36 36 37 36 36 37 37 36 36 36
33 39 38 41 42 42 41 40 40 38 38 38 36 35 36 36 37 37 37 38 37 36 36 35 36 37 39 40 39 36 34 35 35 34 35 35 35 35 36 35 35 36 36 35
40 41 41 42 42 43 41 40 40 39 38 37 38 37 37 36 37 36 38 37 36 35 35 34 34 35 36 38 37 35 33 34 34 34 34 33 34 33 31 35 36 35 36 36
42 41 40 42 41 42 42 41 40 39 39 38 37 38 37 36 36 36 35 36 37 35 34 34 35 34 37 37 35 33 32 32 33 33 33 33 33 33 33 32 31 33 35 35
42 43 42 41 41 41 41 39 39 38 38 38 38 36 36 34 33 34 35 36 35 34 34 35 33 34 36 35 33 32 32 33 33 34 33 33 33 33 33 32 32 33 34 34
42 42 41 40 41 40 40 39 37 38 38 38 37 37 36 35 30 33 35 36 33 33 33 34 33 34 33 32 31 31 33 33 33 33 33 33 33 33 33 33 33 34 34 34
39 39 40 39 39 39 39 39 38 37 37 37 38 37 36 33 33 35 35 35 34 34 34 33 33 33 31 32 31 32 32 33 33 33 32 33 33 32 32 32 32 33 33 34
42 41 40 39 38 38 38 37 37 37 36 36 35 31 28 28 30 31 32 33 33 33 34 34 32 33 33 33 33 33 33 32 33 33 33 33 33 33 32 32 33 32 33 33
40 39 38 38 37 37 36 36 36 35 31 30 27 27 28 29 30 30 31 29 30 32 34 35 33 34 36 34 33 33 33 32 33 34 34 34 34 34 33 33 33 33 33 33
38 38 38 37 37 36 34 33 31 31 29 27 23 25 25 25 26 26 28 28 32 35 34 35 35 35 35 34 32 33 33 32 32 33 33 33 33 33 34 34 33 33 33 33
38 38 36 34 32 29 26 26 25 27 26 22 24 24 26 29 31 30 30 31 35 34 33 34 34 33 35 33 33 33 33 32 32 32 32 32 32 33 33 32 32 32 33 33
36 35 29 27 29 28 28 30 30 25 25 29 29 29 27 29 29 30 31 31 33 32 32 33 33 32 33 31 33 32 31 31 31 32 32 32 32 31 32 32 32 32 32 32
36 35 34 29 28 32 31 30 26 27 25 28 26 26 27 28 30 27 27 32 29 31 31 32 32 32 31 33 32 31 30 30 30 30 31 31 31 31 31 31 32 32 32 32
35 35 35 34 33 32 30 31 31 31 27 29 28 24 27 26 27 32 31 28 26 27 30 32 32 31 31 31 31 31 30 30 30 30 31 31 31 31 31 31 31 32 32 32
35 34 34 32 32 31 31 31 31 30 30 30 29 29 28 29 25 27 26 26 27 28 30 32 31 31 31 31 31 30 30 30 29 29 29 30 30 30 30 30 30 31 31 32
34 34 34 34 33 32 31 31 30 30 29 27 28 27 27 26 26 25 25 27 29 29 31 31 32 31 31 31 30 30 30 30 29 29 29 29 29 30 29 29 29 29 30 31
34 33 32 31 32 32 31 30 30 29 28 25 24 25 24 24 23 23 23 26 26 27 30 31 32 31 31 30 30 30 30 29 28 27 28 28 29 28 28 29 29 29 29 30
MSLP
1016.82 1015.90 1015.54 1015.04 1013.76 1012.80 1011.45 1010.77 1010.28 1011.43 1011.56 1012.17 1012.29 1012.12 1012.02 1011.92 1011.37 1011.02 1010.86 1010.92 1010.13 1010.08 1009.93 1010.20 1009.74 1009.14 1008.68 1008.40 1007.77 1007.55 1007.34 1007.39 1007.60 1007.68 1007.63 1007.50 1006.66 1006.72 1006.05 1005.65 1005.89 1006.12 1006.23 1007.48
1016.45 1015.58 1015.11 1014.67 1014.69 1014.19 1013.52 1013.11 1012.99 1012.89 1013.44 1014.35 1013.75 1013.49 1013.22 1012.70 1011.93 1011.43 1011.50 1011.18 1010.81 1011.13 1011.06 1010.58 1010.30 1009.63 1009.70 1009.39 1009.45 1009.47 1008.82 1008.49 1008.84 1009.05 1009.21 1009.12 1007.83 1006.58 1007.12 1006.83 1006.65 1006.31 1006.82 1008.19
1016.54 1015.44 1014.80 1015.25 1015.71 1015.72 1015.61 1015.26 1015.05 1014.59 1015.74 1015.42 1014.98 1014.60 1014.33 1013.87 1013.42 1013.04 1012.61 1012.42 1012.24 1011.92 1011.73 1011.43 1010.70 1010.69 1010.19 1010.21 1010.72 1010.39 1009.97 1010.62 1009.94 1009.93 1009.65 1010.58 1008.91 1009.04 1008.59 1007.99 1008.24 1008.47 1008.83 1007.58
1017.20 1015.74 1015.90 1016.89 1016.79 1016.55 1016.83 1017.09 1016.80 1016.82 1016.75 1016.69 1016.18 1015.73 1015.50 1015.26 1014.66 1014.31 1014.04 1013.74 1013.42 1013.25 1012.99 1012.71 1011.95 1011.38 1011.60 1011.22 1011.88 1011.21 1010.74 1010.58 1010.55 1010.51 1010.75 1010.05 1009.72 1010.07 1009.30 1008.47 1008.87 1007.90 1007.46 1007.60
1018.39 1017.19 1016.80 1016.72 1016.95 1017.24 1017.30 1018.02 1017.94 1017.51 1017.13 1016.55 1016.08 1015.66 1015.83 1016.18 1015.96 1015.61 1015.23 1014.82 1014.39 1014.16 1013.73 1013.09 1012.93 1012.70 1012.42 1011.99 1012.01 1011.70 1011.30 1011.60 1011.51 1011.46 1011.51 1011.61 1010.74 1011.44 1010.14 1010.22 1008.80 1008.24 1008.92 1008.44
1019.27 1018.62 1017.96 1017.96 1017.26 1016.97 1016.96 1017.69 1018.18 1018.11 1017.72 1017.25 1016.79 1016.53 1017.27 1017.12 1016.68 1016.47 1016.16 1015.81 1015.43 1014.86 1014.19 1013.50 1012.95 1012.30 1012.23 1012.39 1012.39 1012.60 1012.22 1012.27 1012.17 1012.82 1011.91 1011.51 1011.26 1011.29 1010.49 1011.06 1009.88 1009.92 1009.20 1008.52
1020.12 1019.68 1019.00 1018.19 1017.45 1016.62 1017.27 1018.95 1018.51 1018.34 1017.91 1018.01 1017.91 1018.62 1018.58 1018.10 1017.50 1017.25 1016.98 1016.65 1016.30 1015.71 1015.09 1014.70 1014.16 1013.77 1013.42 1013.28 1013.22 1013.11 1012.67 1012.24 1012.81 1012.04 1011.71 1011.44 1011.48 1011.06 1010.97 1010.83 1010.32 1010.10 1009.60 1008.71
1020.48 1019.91 1019.25 1018.62 1017.70 1017.85 1018.85 1018.53 1018.54 1018.59 1018.77 1018.56 1018.49 1018.45 1018.40 1018.32 1018.18 1017.98 1017.71 1017.44 1017.18 1016.50 1015.81 1015.52 1015.34 1015.14 1014.82 1014.35 1014.10 1013.37 1012.95 1012.66 1012.45 1011.92 1011.91 1011.91 1011.07 1011.12 1011.32 1011.26 1010.99 1010.18 1009.13 1008.62
1020.76 1019.90 1019.21 1018.86 1018.66 1018.49 1018.32 1018.46 1018.77 1019.04 1019.33 1019.43 1019.42 1019.34 1019.33 1019.04 1018.73 1018.32 1017.99 1017.75 1017.41 1016.77 1016.62 1016.27 1015.58 1015.32 1014.95 1014.57 1013.99 1013.61 1013.33 1012.68 1012.29 1012.12 1011.84 1011.40 1011.13 1010.84 1009.97 1010.25 1009.77 1009.21 1009.25 1008.73
1020.07 1019.04 1018.71 1018.46 1018.42 1018.36 1018.35 1018.45 1018.71 1019.00 1019.27 1019.48 1019.48 1019.52 1019.37 1019.07 1018.81 1018.44 1018.05 1017.65 1017.25 1016.99 1016.75 1016.10 1015.91 1015.47 1014.93 1014.40 1014.15 1013.77 1013.15 1012.74 1012.36 1011.52 1010.86 1010.82 1010.42 1009.97 1009.86 1009.81 1009.36 1008.58 1008.45 1008.04
1019.00 1018.40 1018.10 1017.82 1017.82 1017.76 1018.11 1018.50 1018.80 1019.04 1019.25 1019.35 1019.29 1019.11 1019.14 1018.97 1018.60 1018.27 1017.86 1017.60 1017.34 1017.05 1016.71 1016.40 1016.01 1015.51 1015.07 1014.75 1014.26 1013.61 1013.00 1012.51 1011.90 1011.40 1011.04 1010.41 1010.19 1010.12 1010.27 1009.49 1008.81 1008.48 1008.01 1007.85
1018.24 1018.20 1018.27 1017.75 1017.67 1017.72 1017.88 1018.22 1018.56 1018.79 1018.96 1019.21 1019.40 1019.37 1019.31 1019.08 1018.93 1018.63 1018.29 1017.75 1017.37 1017.05 1016.82 1016.51 1016.10 1015.39 1014.92 1014.48 1014.01 1013.42 1012.97 1012.58 1012.05 1011.52 1010.90 1010.45 1009.94 1009.47 1008.84 1008.31 1008.05 1007.73 1007.40 1007.22
1017.93 1018.03 1018.01 1017.80 1017.85 1017.91 1018.07 1018.35 1018.58 1018.76 1018.92 1019.03 1019.12 1019.19 1019.03 1018.82 1018.55 1018.24 1017.82 1017.47 1017.71 1017.47 1017.29 1016.82 1016.22 1015.62 1015.16 1014.62 1014.20 1013.70 1013.03 1012.29 1011.72 1011.24 1010.57 1009.92 1009.35 1008.55 1007.28 1007.16 1007.13 1006.65 1006.47 1006.09
1017.77 1017.92 1017.78 1017.71 1017.70 1017.96 1018.14 1018.38 1018.58 1018.79 1018.92 1019.00 1018.96 1018.80 1018.61 1018.35 1018.00 1017.73 1017.60 1017.50 1016.97 1016.60 1016.57 1016.41 1016.20 1015.93 1015.64 1015.24 1014.82 1014.15 1013.18 1012.47 1011.79 1010.87 1009.91 1009.11 1008.38 1007.88 1007.52 1006.68 1005.70 1005.27 1005.11 1004.85
1017.52 1017.68 1017.77 1017.91 1017.95 1018.11 1018.33 1018.51 1018.58 1018.65 1018.73 1018.80 1018.84 1018.80 1018.63 1018.47 1018.27 1018.04 1017.75 1017.37 1016.97 1016.63 1016.18 1015.74 1015.46 1015.07 1014.70 1014.26 1013.78 1013.14 1012.55 1011.85 1011.24 1010.28 1009.65 1008.93 1008.13 1007.56 1006.94 1006.00 1005.21 1004.61 1004.22 1003.68
1017.29 1017.55 1017.83 1017.97 1018.07 1018.22 1018.38 1018.47 1018.62 1018.65 1018.76 1018.76 1018.73 1018.61 1018.60 1018.52 1018.31 1017.95 1017.46 1016.96 1016.65 1016.25 1015.80 1015.25 1014.79 1014.26 1013.85 1013.47 1013.06 1012.47 1011.81 1011.11 1010.65 1010.18 1009.38 1008.65 1007.83 1006.87 1005.76 1004.82 1004.09 1003.53 1003.08 1002.71
1017.35 1017.61 1017.79 1017.91 1018.10 1018.23 1018.34 1018.51 1018.68 1018.78 1018.87 1018.84 1018.73 1018.70 1018.54 1018.23 1017.88 1017.31 1016.82 1016.53 1016.14 1015.59 1015.14 1014.74 1014.48 1014.28 1014.04 1013.66 1013.21 1012.56 1011.88 1011.17 1010.49 1009.67 1008.86 1007.97 1007.01 1006.07 1005.34 1004.67 1003.87 1002.98 1002.22 1001.71
1017.49 1017.80 1018.07 1018.31 1018.50 1018.57 1018.62 1018.78 1018.90 1018.95 1018.93 1018.96 1018.94 1018.80 1018.56 1018.34 1017.93 1017.37 1016.76 1016.32 1015.84 1015.19 1014.84 1014.52 1014.47 1014.15 1013.80 1013.38 1012.99 1012.35 1011.58 1010.80 1009.99 1009.21 1008.45 1007.67 1006.87 1006.13 1005.31 1004.45 1003.56 1002.72 1001.91 1001.36
1017.90 1018.17 1018.50 1018.76 1018.93 1019.03 1019.12 1019.21 1019.32 1019.37 1019.34 1019.28 1019.18 1019.00 1018.70 1018.24 1017.76 1017.15 1016.53 1016.06 1015.55 1014.95 1014.30 1014.35 1014.14 1013.80 1013.34 1013.04 1012.66 1011.97 1011.20 1010.53 1009.77 1009.05 1008.31 1007.47 1006.57 1005.77 1004.97 1004.19 1003.38 1002.62 1001.93 1001.24
1018.21 1018.46 1018.70 1018.88 1019.12 1019.37 1019.59 1019.80 1019.81 1019.77 1019.68 1019.60 1019.55 1019.04 1018.64 1018.17 1017.81 1017.16 1016.47 1015.80 1015.34 1014.82 1014.59 1014.23 1013.90 1013.45 1013.10 1012.69 1012.20 1011.51 1010.81 1010.27 1009.52 1008.60 1007.72 1006.84 1005.87 1004.95 1004.06 1003.18 1002.42 1001.76 1001.20 1000.60
1018.15 1018.47 1018.77 1019.09 1019.38 1019.70 1020.05 1020.21 1020.11 1020.02 1019.97 1019.94 1019.73 1019.35 1018.88 1018.23 1017.62 1017.09 1016.27 1015.51 1014.98 1015.02 1014.74 1014.24 1013.85 1013.44 1013.03 1012.58 1011.98 1011.26 1010.64 1010.10 1009.38 1008.51 1007.55 1006.60 1005.70 1004.86 1004.01 1003.27 1002.59 1001.91 1001.15 1000.48
1018.03 1018.30 1018.69 1019.10 1019.48 1019.73 1020.02 1020.02 1020.06 1020.15 1020.05 1019.67 1019.55 1019.32 1018.99 1018.34 1017.63 1017.03 1016.53 1016.01 1015.46 1015.21 1014.83 1014.24 1013.80 1013.51 1013.01 1012.47 1011.84 1011.27 1010.72 1010.12 1009.45 1008.68 1007.84 1007.00 1006.21 1005.31 1004.37 1003.52 1002.81 1002.17 1001.56 1001.04
1017.76 1018.18 1018.59 1018.98 1019.22 1019.45 1019.67 1019.81 1019.98 1019.98 1019.94 1019.66 1019.55 1019.43 1019.10 1018.68 1018.05 1017.37 1016.36 1015.87 1015.95 1015.28 1014.73 1014.14 1013.75 1013.32 1012.83 1012.29 1011.90 1011.52 1010.97 1010.39 1009.83 1009.12 1008.30 1007.45 1006.65 1005.85 1005.07 1004.37 1003.66 1002.98 1002.29 1001.77
1017.47 1017.79 1018.10 1018.54 1018.95 1019.20 1019.34 1019.51 1019.66 1019.72 1019.75 1019.66 1019.56 1019.49 1019.16 1018.41 1017.84 1017.40 1017.16 1016.70 1016.18 1015.47 1014.64 1014.07 1013.63 1013.23 1012.78 1012.37 1012.02 1011.57 1011.09 1010.53 1010.01 1009.39 1008.68 1007.95 1007.29 1006.59 1005.87 1005.17 1004.51 1003.85 1003.26 1002.72
1016.86 1017.37 1017.85 1018.24 1018.59 1018.88 1019.13 1019.34 1019.51 1019.65 1019.64 1019.60 1019.58 1019.47 1019.33 1019.09 1018.82 1017.84 1017.40 1016.68 1015.91 1015.29 1014.65 1014.08 1013.72 1013.28 1012.85 1012.53 1012.17 1011.79 1011.38 1010.90 1010.50 1009.91 1009.27 1008.60 1007.97 1007.39 1006.82 1006.19 1005.63 1005.08 1004.51 1004.10
1016.54 1016.89 1017.26 1017.58 1018.01 1018.46 1018.83 1019.15 1019.35 1019.45 1019.62 1019.66 1019.60 1019.55 1019.35 1019.18 1018.74 1018.24 1017.54 1016.68 1015.87 1015.29 1014.75 1014.30 1013.90 1013.53 1013.19 1012.85 1012.49 1012.10 1011.71 1011.25 1010.83 1010.33 1009.81 1009.18 1008.66 1008.21 1007.83 1007.39 1006.87 1006.35 1005.86 1005.36
1016.11 1016.54 1017.11 1017.62 1018.11 1018.32 1018.58 1018.93 1019.16 1019.31 1019.67 1019.88 1019.81 1019.78 1019.55 1019.28 1018.93 1018.46 1017.88 1017.03 1016.48 1015.84 1015.21 1014.71 1014.28 1013.94 1013.61 1013.25 1012.87 1012.42 1012.02 1011.66 1011.33 1010.90 1010.45 1009.94 1009.45 1009.05 1008.68 1008.28 1007.83 1007.37 1007.00 1006.57
Wind_Speed
13 17 11 11 24 28 25 21 15 18 19 12 11 11 11 14 15 15 15 15 15 14 13 12 14 15 14 14 17 16 17 17 16 15 14 12 13 9 12 13 10 10 8 7
6 7 5 20 24 22 27 22 19 18 16 13 15 14 14 15 17 17 16 16 16 14 13 12 12 12 12 12 12 11 13 15 15 14 13 12 13 13 11 12 11 10 10 5
6 18 5 8 20 16 18 22 15 18 10 14 16 16 16 16 17 16 16 16 15 14 14 13 13 11 12 11 10 10 11 12 11 11 11 10 11 11 10 8 6 7 2 4
6 10 7 3 16 8 19 19 19 16 10 11 12 14 16 16 15 15 15 15 14 12 11 11 11 11 10 11 9 11 12 11 11 11 11 10 10 10 11 9 6 5 5 6
5 6 3 6 15 7 7 13 16 14 14 13 5 3 15 16 15 14 14 13 12 12 12 12 11 9 8 10 10 11 12 12 11 11 11 9 9 8 8 9 9 9 6 7
4 4 7 9 19 13 2 11 14 12 13 14 12 8 8 14 14 14 13 12 13 13 12 14 14 13 12 11 11 11 12 11 10 8 8 9 7 9 7 8 7 7 7 7
3 3 3 9 17 6 7 5 11 11 12 10 7 4 7 10 12 12 12 14 15 13 12 13 14 14 13 12 13 12 11 11 10 11 11 11 10 9 8 8 8 8 8 6
2 3 4 10 8 6 3 5 7 9 9 8 8 10 10 11 12 11 12 12 12 11 11 11 12 10 10 11 11 12 13 12 11 10 9 9 10 8 7 8 6 6 7 7
3 2 4 5 5 7 6 5 4 4 4 5 4 5 6 8 9 9 9 8 9 10 10 10 12 11 11 11 12 12 12 13 11 10 8 7 8 9 8 8 8 7 6 8
2 1 5 5 5 4 1 1 2 3 3 3 4 4 6 7 8 8 9 10 11 11 12 13 13 12 12 13 13 13 13 12 11 11 11 10 7 7 8 9 9 9 9 9
4 7 7 3 3 6 3 2 1 1 3 5 7 8 8 8 9 9 10 10 11 11 13 14 13 13 12 13 14 14 14 13 12 10 11 11 8 7 8 10 10 10 10 9
3 2 4 8 6 1 3 1 2 4 5 3 3 5 5 6 6 6 8 10 11 12 15 14 14 15 14 15 15 15 13 11 10 9 9 10 9 10 10 14 18 20 23 16
3 1 6 10 5 1 2 2 1 2 3 6 6 6 7 8 9 10 10 12 11 10 12 11 13 13 14 16 15 15 14 14 11 11 9 9 10 10 12 8 16 19 21 23
5 3 4 3 3 4 3 2 0 2 4 5 6 7 8 9 11 12 12 13 13 10 10 11 11 12 13 11 11 12 12 15 10 10 10 11 12 11 10 12 11 10 11 17
5 4 3 3 1 3 2 1 4 5 6 6 6 7 7 8 9 10 9 10 9 10 10 11 9 13 11 12 12 11 9 7 9 9 10 11 11 11 11 11 10 13 10 9
5 3 3 3 4 5 5 5 6 6 5 7 8 8 7 6 6 8 9 8 8 9 11 10 9 10 11 11 12 10 10 13 11 9 10 10 10 11 12 13 13 12 10 9
4 3 3 3 4 5 6 5 5 6 7 9 10 10 9 7 8 10 10 8 8 8 9 8 8 8 8 11 10 8 9 9 12 9 9 10 10 10 10 11 11 11 10 9
2 3 3 2 3 4 5 5 6 7 9 11 10 9 7 8 10 11 11 10 10 12 8 8 5 8 9 12 10 9 9 9 9 9 9 10 10 10 10 10 11 10 9 9
4 4 3 2 2 4 4 5 6 8 7 7 7 7 7 8 9 11 11 10 10 11 9 5 7 9 13 14 11 9 9 10 9 9 10 13 11 10 10 10 10 10 8 8
4 3 1 1 2 3 4 4 5 6 6 6 6 6 8 9 10 11 11 11 10 9 10 8 10 9 12 13 13 9 9 9 10 11 10 11 9 10 9 10 10 8 7 6
5 4 3 2 1 1 1 1 2 5 6 5 6 8 9 11 11 11 10 9 9 10 11 10 8 7 9 10 10 8 9 8 9 10 11 10 11 10 10 9 8 7 7 5
6 5 4 3 2 0 1 2 3 3 4 4 8 8 9 10 11 10 6 8 9 12 10 9 7 9 10 12 8 9 9 9 9 9 9 9 9 9 9 9 9 7 6 6
5 4 4 5 3 0 1 2 3 2 4 5 5 7 7 7 8 9 11 11 10 10 9 7 9 12 11 7 7 9 10 9 9 9 8 9 9 9 8 9 9 8 8 7
6 6 5 5 4 2 2 2 4 3 2 3 4 4 8 9 8 5 8 12 13 11 9 8 8 11 11 6 7 8 9 9 9 9 9 10 8 9 9 9 9 9 8 9
7 6 6 6 4 2 2 1 3 3 4 4 5 5 7 6 5 10 10 9 12 10 8 10 9 10 5 6 7 8 8 8 8 9 9 9 9 8 9 9 9 9 8 8
9 7 7 7 4 4 3 2 0 2 3 4 4 5 6 6 6 7 8 9 8 8 6 5 6 6 6 7 8 8 8 8 8 9 9 9 9 9 8 8 8 8 8 7
6 7 5 4 3 4 3 3 2 2 1 1 4 4 6 6 7 8 8 8 9 9 8 7 6 7 7 7 8 8 8 8 9 8 9 8 8 8 8 8 8 8 8 8
Wind_Direction
270 286 328 342 5 12 19 20 51 56 48 29 60 39 40 37 43 48 50 48 53 56 53 40 35 36 23 26 25 24 39 38 27 23 22 14 33 24 37 41 47 51 38 51
296 334 315 24 11 21 23 21 42 48 51 42 54 49 47 45 42 46 47 44 46 48 45 45 34 39 42 32 34 31 32 35 29 28 22 6 12 20 32 33 27 38 33 342
297 337 92 4 3 23 33 23 16 42 29 30 41 40 34 38 39 36 34 35 34 37 33 28 36 31 29 37 23 35 36 21 28 26 17 2 15 11 4 27 46 16 327 31
295 340 55 165 13 22 57 26 16 26 35 57 54 51 39 28 32 35 29 22 22 23 31 28 24 29 26 32 26 27 32 20 16 14 0 2 18 1 353 13 353 348 12 7
336 339 312 18 2 357 45 38 16 14 11 13 240 347 36 19 21 21 15 7 7 5 5 14 21 25 33 28 25 20 24 13 18 8 357 358 13 341 7 336 345 352 333 312
356 18 5 357 337 340 291 47 5 8 13 1 17 27 10 357 8 11 11 10 5 4 10 13 7 9 18 24 26 16 7 4 2 349 358 351 360 336 358 322 330 314 308 323
12 22 285 331 340 333 50 356 339 5 10 13 41 35 340 1 10 6 7 6 3 5 10 11 9 6 10 10 5 355 351 353 344 350 348 349 336 338 334 324 320 308 297 293
336 1 350 6 352 40 296 312 355 19 20 8 6 3 3 4 3 4 4 2 2 0 1 360 5 7 3 358 349 347 343 343 338 340 336 326 329 327 318 313 288 290 307 298
231 251 253 297 264 294 288 313 359 31 22 13 23 8 352 352 354 357 357 3 358 359 357 356 358 359 358 353 346 342 338 337 332 326 312 304 306 305 316 311 310 305 293 292
318 234 251 259 243 245 259 315 14 12 3 19 12 12 2 352 357 360 4 1 359 356 354 356 356 356 351 347 342 335 332 329 323 325 330 321 308 305 301 297 295 298 295 294
258 282 299 256 259 280 197 122 120 29 4 3 353 2 356 0 1 354 356 355 355 351 351 346 347 349 346 346 339 333 328 325 325 324 319 314 303 292 276 272 274 282 280 280
249 298 272 290 322 348 176 356 8 2 359 5 324 333 335 346 349 346 350 352 349 347 346 345 343 341 339 343 340 334 324 319 316 309 310 311 303 295 258 253 263 261 262 262
249 232 261 280 282 188 185 218 266 318 335 328 335 325 333 335 345 345 347 350 342 344 346 340 339 336 336 333 332 329 319 314 311 303 299 299 299 296 303 282 261 260 254 255
233 260 277 238 260 202 209 190 324 306 302 302 312 323 330 334 341 344 344 336 334 335 328 331 329 325 326 325 321 309 302 300 296 297 300 304 307 300 293 294 297 290 260 247
219 211 266 304 196 206 214 265 287 302 316 312 317 317 322 322 327 326 323 312 316 315 316 320 317 325 323 325 323 309 303 297 298 301 297 297 299 296 291 289 284 288 281 257
174 185 190 238 278 276 272 274 279 299 310 313 310 309 305 291 277 300 301 299 310 317 307 306 307 327 328 328 325 314 308 303 302 302 300 298 297 295 300 300 298 294 287 280
174 222 230 267 305 310 300 298 283 294 306 308 313 318 304 288 286 302 304 305 288 288 288 289 300 320 327 330 321 310 307 301 300 302 305 302 304 303 299 294 290 289 287 280
118 91 80 56 352 339 334 328 324 324 324 325 324 317 303 302 304 307 302 305 301 296 294 298 302 322 332 331 322 310 305 304 305 309 306 305 307 298 289 289 290 289 286 273
120 118 90 46 11 333 321 333 342 335 336 342 341 324 309 295 300 303 306 306 304 307 317 319 306 319 332 331 316 310 307 309 310 311 313 311 313 309 304 298 295 297 293 281
147 144 140 71 28 17 345 6 356 349 335 341 327 324 327 323 324 316 313 308 300 300 308 305 320 324 332 330 318 312 315 317 315 319 321 320 320 316 316 317 319 308 306 298
199 191 193 220 270 46 86 327 326 354 339 359 359 344 331 326 335 333 327 333 354 347 331 323 329 329 330 326 320 319 328 326 323 323 329 330 327 329 331 334 328 326 326 327
211 207 201 193 205 276 25 1 6 346 357 356 359 351 342 334 331 331 327 324 332 333 329 320 323 334 324 323 327 331 332 332 330 329 332 337 334 333 341 346 347 347 353 5
207 201 186 173 178 138 11 359 343 355 357 355 5 351 334 319 319 325 327 339 330 326 319 311 317 326 326 323 339 342 339 341 339 336 333 341 343 344 347 353 356 1 10 17
201 199 190 164 162 196 295 344 338 336 349 354 1 347 339 334 327 319 323 324 326 320 310 315 320 331 335 342 345 349 349 348 349 344 346 351 353 351 354 358 0 6 15 21
198 185 169 174 202 217 201 335 339 349 352 342 347 349 348 342 312 318 324 316 316 317 323 329 336 340 347 352 355 355 354 355 356 354 354 357 3 4 2 2 3 5 14 23
182 191 190 187 192 181 175 162 235 305 329 331 333 350 345 338 333 329 326 330 336 339 339 345 356 357 2 5 1 360 358 358 360 2 357 0 5 10 13 8 6 9 9 13
184 166 166 156 199 192 179 181 214 266 304 319 315 352 346 348 347 344 344 360 1 359 1 3 3 9 10 10 7 5 6 4 4 3 7 3 8 10 11 15 15 17 20 25